GFSFLT1_con_lsi_123.txt.gz
Lid_Strength_Index
4 5 5 5 5 2 2 2 1 1 1 2 2 2 2 1 2 1 2 1 1 1 1 1 0 1 2 2 2 2 1 1
5 4 4 6 6 4 2 2 2 1 2 3 3 3 2 2 1 1 2 1 1 1 1 1 1 1 1 2 2 2 2 1
5 6 6 5 4 2 2 2 2 2 1 1 2 2 2 2 1 1 0 1 1 1 1 1 1 1 2 2 2 2 3 1
7 5 5 5 4 3 3 2 2 2 2 2 3 3 3 3 2 2 1 1 1 2 2 1 1 1 1 2 2 2 3 2
7 6 6 5 4 3 3 3 2 2 2 2 3 3 3 3 2 1 1 0 1 1 1 1 1 1 1 1 1 2 2 3
7 6 5 5 4 3 2 2 2 2 2 2 3 3 3 3 1 2 1 1 1 1 1 1 1 1 1 1 1 2 2 2
6 5 4 4 3 4 3 3 3 2 3 3 3 3 3 2 2 3 2 2 2 1 1 1 0 1 1 1 1 1 2 2
5 5 5 4 4 4 4 4 3 3 3 3 3 4 3 3 2 2 3 3 1 1 1 1 1 1 0 1 1 1 2 2
5 5 5 5 4 5 5 5 4 3 3 3 3 3 2 2 2 2 2 2 1 1 1 1 1 1 1 1 1 1 1 1
6 5 5 5 5 5 5 5 4 3 3 2 2 2 2 3 2 2 2 2 1 1 1 1 1 1 1 1 1 1 1 1
6 5 4 4 4 4 3 3 3 3 3 3 2 3 3 2 2 3 2 2 2 2 2 1 1 1 1 1 1 1 1 1
6 5 4 5 4 4 4 3 3 3 3 2 2 2 2 3 3 3 2 2 2 3 2 3 2 2 1 1 1 1 1 1
5 5 5 5 6 5 5 4 4 3 2 2 2 2 3 3 3 2 2 2 2 3 3 3 3 2 2 2 2 2 2 2
6 6 6 6 7 7 6 6 5 4 3 2 3 3 3 3 3 2 2 3 3 2 2 3 3 3 3 3 3 3 2 2
6 6 6 6 7 7 7 7 7 6 5 4 4 3 3 3 2 2 3 3 3 3 3 3 3 3 3 3 3 3 2 3
6 7 6 6 6 7 7 8 8 7 7 8 8 6 5 3 3 2 2 3 3 2 3 3 3 3 3 4 3 3 3 4
7 5 5 5 6 7 7 8 9 9 9 9 9 8 7 6 3 2 2 2 3 3 3 3 4 4 8 8 6 4 4 5
8 8 7 6 6 7 8 8 9 10 10 11 10 10 9 8 7 3 2 2 2 3 3 3 3 4 9 9 9 5 5 6
9 9 9 8 7 7 8 9 9 10 11 11 11 11 10 9 9 8 6 3 2 3 3 3 3 4 10 10 10 6 6 7

GFSFLT1_con_lsi_126.txt.gz
Lid_Strength_Index
4 4 5 5 6 2 2 2 1 1 1 2 2 2 2 1 1 1 1 1 1 2 2 2 1 1 1 2 2 2 2 1
5 5 4 5 6 2 2 2 2 1 2 3 3 3 2 2 2 2 1 1 2 2 2 2 1 1 2 2 3 2 3 1
7 6 5 5 5 6 2 2 2 2 1 1 2 2 2 2 2 2 2 2 1 1 1 1 1 1 2 2 2 3 3 1
8 8 7 6 6 7 2 2 2 2 1 2 3 3 4 3 2 2 1 1 1 1 1 2 1 1 2 2 2 2 3 2
8 7 7 6 6 5 3 2 2 2 1 2 3 3 3 2 2 2 2 1 1 1 1 1 1 1 2 2 2 2 2 3
8 8 7 6 5 3 2 2 2 2 2 2 2 3 2 3 2 3 2 1 1 1 1 2 2 1 1 1 2 2 2 3
8 8 8 6 5 3 3 3 2 2 2 2 2 3 3 3 3 3 2 2 2 2 1 2 1 1 1 1 1 1 2 2
6 5 5 4 4 3 3 3 4 3 2 2 2 3 3 3 3 3 3 2 3 2 1 1 1 1 1 1 1 1 1 2
6 5 5 5 4 5 5 4 4 4 4 4 3 3 3 3 3 3 3 2 2 2 2 1 1 1 1 1 1 1 1 1
6 6 6 6 6 6 5 5 4 4 4 4 4 4 4 3 4 3 2 2 2 1 1 1 1 1 1 1 1 1 1 1
7 7 6 6 6 6 5 4 4 4 3 3 3 3 3 3 3 3 2 2 2 2 2 1 1 1 1 1 1 1 1 1
6 6 6 6 5 6 5 5 4 3 3 3 3 3 3 3 3 3 3 2 2 2 1 2 1 2 2 2 1 1 1 1
6 6 6 6 6 6 6 6 5 4 2 3 3 3 3 3 3 3 3 3 2 3 2 3 2 2 2 2 2 2 2 2
7 7 7 7 7 7 7 7 7 5 4 2 3 4 3 3 3 3 3 3 3 4 4 4 3 4 3 3 2 2 2 1
8 8 8 8 8 8 8 8 8 7 7 6 6 6 3 3 2 2 3 3 4 3 4 4 3 2 3 3 3 3 3 2
8 8 8 8 9 8 9 10 9 9 9 8 8 7 5 4 3 3 3 3 3 4 4 4 3 3 3 3 3 3 3 3
9 8 8 9 9 9 8 9 10 10 11 10 10 9 8 7 6 3 3 3 3 4 5 4 3 3 8 9 6 4 3 4
10 11 10 9 9 8 10 10 9 9 10 11 11 11 10 9 8 7 3 3 3 4 4 4 4 4 9 10 10 4 5 5
10 11 11 9 9 10 10 10 10 10 10 10 12 12 11 11 10 9 8 6 3 3 3 4 4 4 9 10 10 5 6 7

GFSFLT1_con_lsi_129.txt.gz
Lid_Strength_Index
6 6 6 6 5 2 2 1 1 1 1 1 1 1 1 0 0 0 1 1 1 2 2 2 1 2 2 2 3 3 3 2
6 6 5 6 7 4 2 2 2 1 2 2 2 2 2 1 0 0 1 1 1 2 2 2 2 2 2 2 3 3 3 2
7 6 7 6 6 6 2 2 2 2 2 1 2 2 2 1 1 1 1 1 2 2 3 3 2 2 3 3 3 4 3 1
7 6 7 7 7 7 3 2 2 2 1 1 2 3 3 2 2 2 2 2 2 2 2 2 2 2 2 2 2 2 3 2
7 6 8 7 7 6 5 2 2 2 1 2 2 3 4 2 2 1 2 2 2 2 2 2 1 1 1 2 2 2 2 3
7 6 7 7 7 6 6 3 2 2 2 2 2 3 2 2 2 2 2 2 1 1 1 2 1 1 1 1 2 2 2 2
7 6 6 9 4 5 3 2 2 2 2 2 2 3 3 3 2 2 2 2 2 2 1 2 2 2 2 2 1 2 2 2
8 8 8 4 4 4 3 3 3 2 2 2 2 2 3 3 2 2 2 3 2 2 1 2 2 2 2 1 1 1 2 2
6 6 5 4 4 4 4 3 4 3 2 2 2 3 3 3 3 2 2 3 3 2 1 1 1 1 1 2 1 1 1 2
6 5 5 4 4 5 5 4 4 4 4 4 4 3 3 3 3 3 3 3 3 2 1 1 1 2 2 2 2 1 1 1
6 6 6 6 6 6 7 6 5 4 4 3 4 4 4 4 3 4 4 3 3 2 2 2 2 2 2 2 1 1 1 1
6 6 7 7 7 7 7 6 7 5 4 4 3 3 3 4 3 4 4 4 3 2 2 2 2 3 1 1 1 1 1 1
7 7 7 8 8 7 7 6 7 6 4 4 4 3 4 4 4 3 3 3 3 2 2 3 2 2 2 2 2 2 2 2
8 9 9 9 9 9 9 8 8 7 6 5 6 6 3 3 4 4 4 3 3 3 3 3 2 2 3 2 2 2 2 2
9 9 10 9 10 10 10 10 9 8 8 8 8 7 6 3 3 3 3 3 4 4 4 3 3 3 3 3 3 3 2 2
11 10 11 11 11 11 10 10 10 10 10 9 10 9 7 7 5 3 3 3 3 4 4 4 4 4 4 4 3 3 3 3
12 12 11 12 12 12 11 11 10 11 11 11 11 10 9 9 8 7 3 3 3 4 4 4 5 5 9 9 5 3 4 4
13 13 13 13 13 13 13 12 11 10 10 12 12 11 11 11 10 9 8 6 3 4 4 4 5 5 9 10 10 4 4 4
13 13 13 14 13 13 13 13 12 11 11 11 12 13 12 12 11 11 10 9 7 4 4 4 4 5 10 10 10 5 5 7

GFSFLT1_con_lsi_132.txt.gz
Lid_Strength_Index
8 7 8 8 7 6 1 1 1 1 1 1 1 1 1 0 1 1 2 1 1 2 2 2 1 1 2 3 3 3 3 2
7 7 7 7 7 6 3 2 2 1 2 2 2 2 1 1 1 1 1 2 1 2 2 2 1 1 2 2 4 4 3 2
8 8 8 7 6 6 6 2 2 2 1 1 1 1 1 1 0 1 1 1 1 1 2 2 2 1 2 3 3 4 3 2
9 8 8 8 7 6 6 4 2 2 1 1 2 1 1 2 1 1 1 1 1 1 2 2 2 1 2 3 3 3 3 2
8 8 8 8 8 6 5 5 2 2 1 2 2 3 3 2 2 1 1 1 1 1 2 2 2 2 2 3 3 3 3 3
7 8 7 7 7 7 6 6 3 2 2 2 2 3 2 2 2 2 1 1 1 1 2 2 2 2 2 2 3 3 2 2
7 6 7 7 8 5 6 6 3 2 2 2 2 3 3 3 2 2 2 2 1 2 2 2 2 1 2 2 2 2 2 2
8 7 8 9 6 4 3 5 3 2 2 2 2 2 2 2 2 2 2 2 2 2 2 2 2 1 1 1 2 2 2 2
6 5 5 5 5 5 4 3 3 3 2 2 2 2 2 2 2 2 2 2 1 1 2 2 2 1 1 2 2 2 2 2
6 5 6 4 4 4 3 3 3 3 2 2 2 2 2 2 2 2 1 2 2 2 2 2 2 1 1 2 2 2 2 1
7 7 7 6 6 6 5 4 5 5 3 2 2 2 3 2 2 2 2 1 2 2 2 2 2 2 2 2 2 2 2 1
8 9 8 8 9 9 8 6 6 6 4 3 3 3 3 3 3 3 3 3 3 3 2 2 2 2 2 2 2 2 2 1
9 10 9 9 10 10 10 10 9 8 6 5 5 3 2 2 3 3 4 4 4 3 3 3 2 2 2 2 2 2 2 2
11 12 12 11 10 10 10 11 10 9 8 8 7 7 6 3 3 3 3 3 3 3 3 3 3 3 3 3 2 2 1 1
13 13 14 13 12 12 11 11 11 10 10 10 9 9 8 6 3 3 3 3 3 3 3 3 3 3 3 2 2 3 2 2
14 14 14 14 14 13 12 12 11 11 11 11 11 10 9 9 8 7 3 3 3 3 3 4 4 4 4 3 4 3 3 3
14 14 14 14 14 14 14 13 12 12 12 12 12 11 10 10 9 8 8 5 4 4 4 5 5 5 9 10 6 4 4 4
14 14 15 15 14 14 14 14 12 13 13 13 13 12 12 12 11 10 10 9 7 4 4 5 5 5 10 10 10 4 4 4
14 14 14 14 14 14 14 14 14 14 14 13 13 13 13 13 13 12 12 10 9 8 4 4 5 6 10 10 11 5 5 5

GFSFLT1_con_lsi_135.txt.gz
Lid_Strength_Index
6 5 4 5 4 5 4 2 0 1 0 0 0 0 -0 -0 -0 -0 -0 0 -0 -1 -0 -0 -0 0 0 1 0 -0 0 1
5 5 4 4 4 4 4 4 1 1 1 2 2 2 1 1 0 -0 0 0 -0 -0 -0 -0 0 1 1 0 0 1 1 0
3 3 4 4 4 3 3 3 3 1 1 1 1 1 1 1 0 0 -0 0 0 -0 -0 0 0 0 0 0 0 1 1 1
4 3 3 3 3 4 4 3 2 1 1 1 1 1 1 1 1 1 0 -0 0 1 -0 0 0 0 1 1 0 1 2 1
4 4 3 3 3 3 3 3 1 1 1 1 2 3 3 2 1 1 1 0 0 0 1 -0 0 0 1 1 0 1 1 2
5 4 3 3 3 3 3 3 2 0 1 1 2 2 2 1 1 1 1 1 0 0 1 -0 0 0 1 1 1 1 1 1
5 4 3 3 2 2 3 3 2 1 1 1 2 2 2 2 2 2 2 1 1 1 1 0 0 0 1 1 1 1 1 1
5 5 5 4 3 3 3 4 3 1 1 2 2 2 2 2 2 2 2 2 2 1 2 1 0 0 1 2 2 1 0 1
7 7 6 6 5 3 2 3 2 1 2 2 1 1 2 2 2 1 2 2 1 1 2 1 0 1 1 1 2 1 0 1
9 9 9 7 8 6 4 3 2 2 2 2 2 1 2 2 1 1 1 1 1 1 1 2 1 1 1 1 1 2 1 1
11 11 11 10 8 9 8 6 4 3 2 2 2 1 1 1 1 1 1 1 1 1 1 2 2 1 2 1 1 1 2 2
12 12 12 12 11 10 11 10 8 8 7 4 2 2 1 1 1 1 1 1 1 1 1 1 2 2 2 1 1 2 2 2
12 13 13 14 13 12 11 10 9 8 7 7 5 4 2 2 2 2 2 2 2 1 2 2 2 2 2 2 2 2 2 2
13 14 15 14 14 13 12 11 10 10 9 9 8 7 7 5 2 1 1 1 2 2 2 2 2 2 1 2 2 2 2 2
14 14 15 15 14 14 13 12 11 11 11 11 11 9 9 8 6 4 2 2 1 1 2 2 2 2 2 2 2 2 1 1
14 15 16 15 14 14 14 13 13 13 12 12 13 11 10 10 8 7 5 2 2 2 2 2 2 2 2 2 1 1 1 1
14 15 15 15 15 14 14 14 14 13 14 14 13 12 11 11 10 9 9 7 3 3 3 3 3 4 10 9 5 2 2 2
15 15 15 15 15 14 14 14 14 13 14 14 14 13 13 12 11 11 10 9 7 6 4 4 4 3 10 10 9 2 1 1
15 14 14 14 14 14 14 14 14 14 14 14 14 14 14 13 13 12 12 10 10 9 9 8 4 9 11 11 11 2 2 3

GFSFLT1_con_lsi_138.txt.gz
Lid_Strength_Index
3 3 2 1 0 1 1 1 0 -0 -0 -0 -0 -0 -0 -1 -0 -0 -1 -1 -1 -1 -1 -1 -1 -0 -0 -0 0 -0 0 0
3 2 2 1 1 1 1 2 1 0 1 1 1 1 1 0 -0 -1 -1 -1 -1 -1 -0 -0 -0 0 0 -0 0 1 1 0
3 2 1 1 1 1 1 1 1 1 0 0 1 1 1 0 -0 -0 -1 -0 -0 -0 -0 0 0 0 0 0 0 1 1 1
3 3 2 2 2 1 1 0 1 1 -0 -0 0 1 1 1 1 0 0 -0 -0 -0 -0 -0 0 -0 1 1 0 1 2 1
4 4 4 4 2 1 1 0 1 1 -0 0 1 2 3 2 1 0 0 -0 -0 -0 -0 -0 -0 -0 0 0 0 0 1 2
6 6 6 6 5 3 1 1 1 0 -0 -0 1 2 2 1 1 1 1 0 0 0 -0 -0 0 0 -0 0 0 0 1 1
7 8 8 9 8 5 2 1 2 1 0 0 1 2 2 2 2 2 2 1 1 0 0 0 0 0 0 0 0 0 0 1
10 9 11 10 9 7 4 2 1 1 0 0 1 1 2 2 2 2 2 2 1 1 1 1 1 0 0 0 0 0 1 1
10 10 11 10 10 9 7 4 1 1 0 1 1 1 1 1 1 1 1 1 1 1 1 0 0 0 0 0 0 0 0 1
10 12 12 11 11 10 9 8 2 1 0 0 1 1 1 1 1 1 1 1 1 1 1 1 0 0 0 0 1 1 0 1
11 12 12 12 11 11 11 10 8 5 2 1 1 1 1 1 1 1 1 1 1 1 1 1 1 1 1 1 1 0 1 1
11 12 13 11 11 13 12 12 11 8 8 6 2 1 1 1 1 1 1 1 1 1 1 1 1 1 1 1 1 1 1 1
12 12 13 13 13 14 13 13 12 10 11 10 9 7 5 3 1 1 1 1 1 1 1 1 2 2 1 2 2 1 1 2
12 13 14 15 14 14 14 13 12 11 11 11 11 9 8 8 7 4 1 2 2 2 2 2 3 2 2 2 1 1 1 1
13 14 14 15 15 14 14 13 13 12 11 11 11 11 9 5 5 6 5 1 1 1 1 1 1 1 1 2 1 1 1 1
13 14 14 14 15 14 14 13 12 12 11 11 12 10 10 7 7 6 6 5 1 1 1 1 1 1 1 2 2 2 1 1
13 14 14 14 15 15 14 14 12 12 12 12 11 12 11 11 9 8 8 7 5 2 2 1 1 2 8 9 4 2 1 1
13 13 14 14 14 14 15 13 13 13 14 14 14 13 13 12 11 11 11 9 8 7 7 3 6 10 13 10 10 2 2 2
13 12 13 13 13 13 13 13 13 13 14 14 14 14 14 13 13 13 12 11 10 11 11 9 10 13 14 13 13 2 2 2

GFSFLT1_con_lsi_141.txt.gz
Lid_Strength_Index
3 2 1 1 0 0 0 0 -0 -0 -0 -0 -0 0 0 -0 -0 -0 -0 -0 -1 -0 -0 -0 -0 -0 0 0 1 0 1 1
2 2 2 3 2 2 1 1 0 0 1 1 1 1 1 0 -0 -0 -0 -0 -0 -0 -0 -0 -0 0 0 0 0 1 1 1
3 3 4 4 4 4 3 3 1 0 0 0 0 0 1 0 0 -0 -0 -0 -0 -0 0 0 0 0 0 0 1 1 1 1
5 5 5 5 6 5 4 4 2 1 0 0 0 0 0 1 1 1 0 -0 -0 -0 -0 -0 0 0 1 1 1 1 2 1
6 5 7 6 6 5 6 5 4 1 0 1 1 1 2 2 1 1 1 0 0 -0 -0 -0 0 0 1 1 0 1 1 3
6 6 6 6 7 7 7 7 6 3 0 1 1 1 1 1 1 1 1 0 0 0 -0 0 0 0 0 0 1 1 1 2
5 6 6 8 8 8 9 8 7 4 1 1 1 1 1 2 2 2 2 1 1 1 0 0 0 0 0 0 0 1 1 1
6 8 9 9 10 9 9 9 8 5 1 1 1 1 1 1 2 2 2 2 1 1 1 0 1 0 0 0 1 1 1 1
7 8 9 10 11 10 10 9 9 5 1 1 0 0 1 1 1 2 2 2 1 1 1 0 0 0 0 0 1 1 1 1
7 8 9 11 12 11 11 10 9 6 2 2 1 1 1 1 1 1 1 1 1 1 1 1 1 0 0 1 1 1 1 1
8 8 10 11 11 11 11 10 10 9 4 3 1 1 1 1 1 2 2 1 1 1 1 1 1 1 1 1 1 1 1 1
8 9 10 11 11 12 12 12 11 10 8 7 6 2 2 1 2 1 1 1 1 1 1 1 1 1 1 1 1 1 1 1
8 10 11 12 12 13 13 12 11 10 9 10 9 8 5 5 4 1 1 1 1 1 1 1 1 1 1 1 2 1 2 2
9 11 13 13 13 13 13 13 12 11 10 11 11 11 9 8 7 5 4 1 1 1 1 1 2 1 1 1 1 1 1 2
10 12 13 13 13 14 13 13 12 12 11 12 13 11 11 10 9 8 7 5 2 2 2 1 2 2 2 2 2 2 1 1
10 12 13 13 13 14 13 13 13 12 12 12 13 13 10 10 10 9 8 7 5 2 1 2 2 2 2 2 2 2 2 2
10 11 12 13 13 13 13 13 13 12 12 13 12 12 12 11 11 10 9 8 7 7 6 2 2 9 14 10 4 2 2 2
10 10 10 11 12 12 12 13 12 12 13 12 12 12 12 12 10 10 10 10 9 9 9 9 12 13 14 13 12 1 1 2
9 10 10 11 11 11 11 12 13 13 13 12 13 13 12 11 12 11 11 10 11 11 12 11 12 14 14 14 13 5 2 3

GFSFLT1_con_lsi_144.txt.gz
Lid_Strength_Index
4 3 3 3 3 4 4 4 3 2 2 1 0 1 2 3 0 0 0 -0 -0 0 0 0 0 1 1 1 1 1 1 1
4 4 4 4 5 5 6 6 5 5 5 4 2 2 2 3 0 0 0 0 0 0 0 1 0 1 1 1 1 2 2 1
5 5 5 5 6 6 7 7 6 6 6 5 4 2 2 2 0 0 0 0 0 0 1 1 1 1 1 1 1 2 2 1
7 6 6 6 7 7 8 7 7 7 6 6 4 3 2 2 2 1 1 0 0 0 0 1 1 1 1 1 1 2 3 2
6 6 6 7 7 7 8 8 8 7 6 6 5 4 4 2 2 1 1 0 1 1 1 1 1 1 1 1 1 1 2 3
7 7 7 7 7 8 8 8 8 8 8 7 5 4 3 1 2 1 1 1 0 1 1 1 1 1 1 1 1 1 1 2
7 6 7 8 7 7 8 9 9 9 8 8 6 5 2 2 2 2 2 1 1 1 1 1 1 1 1 1 1 1 1 2
7 8 8 8 8 8 9 10 10 9 8 7 6 3 2 2 2 3 2 2 2 2 1 1 1 1 1 1 1 1 1 2
7 7 7 8 9 9 10 11 11 10 9 7 5 3 2 2 2 2 3 2 2 1 1 1 1 1 1 1 1 1 1 1
7 7 7 9 10 10 11 12 11 10 9 7 6 4 3 2 1 1 1 1 1 1 1 2 1 1 1 1 1 1 1 1
7 7 8 9 10 10 11 11 11 10 9 7 6 4 3 1 1 1 1 1 2 2 1 4 4 1 1 1 1 1 2 1
8 8 8 10 11 11 12 12 12 11 10 8 8 6 5 3 2 1 2 1 1 2 2 3 1 1 1 1 1 2 2 2
8 8 9 10 11 12 12 13 12 11 11 10 9 9 7 6 5 4 3 2 2 3 2 1 1 1 1 2 2 2 2 2
8 9 11 11 12 12 12 12 12 12 11 11 11 10 9 8 7 6 3 3 2 2 2 2 2 2 2 1 2 2 2 2
9 10 11 11 12 12 12 12 11 11 11 12 12 11 11 10 9 9 8 6 4 2 2 3 2 2 1 1 1 2 2 2
9 10 10 11 12 12 12 12 12 11 12 12 13 12 11 11 11 10 9 8 7 6 3 3 1 4 8 4 2 2 2 2
9 9 9 10 11 11 12 12 12 12 12 12 11 12 12 12 12 11 11 11 10 10 9 10 11 12 13 15 10 2 2 2
9 9 9 9 10 11 11 11 12 12 13 11 11 11 12 12 11 11 11 11 12 13 13 11 12 13 14 13 13 4 3 3
9 9 9 9 10 10 10 11 12 12 13 12 11 11 12 12 12 12 11 11 12 13 14 13 13 14 15 13 14 7 3 3

GFSFLT1_con_lsi_147.txt.gz
Lid_Strength_Index
8 7 7 7 7 7 7 6 7 7 6 6 6 5 4 2 1 3 3 -0 0 0 0 2 1 2 2 1 1 2 1 2
8 7 7 7 7 7 7 8 8 8 9 9 9 8 7 5 4 2 3 1 -0 0 0 1 2 1 1 1 2 2 2 2
8 8 8 9 8 8 8 9 9 9 9 9 9 8 7 6 5 4 2 2 0 0 1 1 2 1 1 2 1 3 2 2
9 8 9 9 9 9 9 9 10 10 9 8 8 8 7 7 5 3 1 1 -0 0 0 1 1 1 1 1 1 2 3 2
9 9 9 9 9 9 9 9 9 9 8 9 9 9 9 7 6 4 3 2 1 0 0 0 1 1 1 1 1 1 2 3
10 10 10 10 9 10 10 9 9 9 8 8 9 9 8 7 7 5 3 3 0 0 0 1 1 1 1 1 1 1 1 2
9 9 9 10 10 10 10 9 9 9 9 9 9 9 8 8 6 6 5 2 1 2 1 1 1 1 1 1 1 1 1 2
10 10 10 10 11 10 10 9 10 10 10 9 8 8 7 6 5 4 3 2 2 1 1 1 1 0 1 1 1 1 1 2
10 10 11 11 11 11 10 10 11 11 10 9 9 8 6 6 4 3 2 2 2 1 1 1 2 1 1 1 1 1 1 1
10 11 11 11 12 11 10 10 11 11 10 9 9 8 7 6 4 2 2 1 3 2 1 1 3 2 3 1 1 2 1 1
11 10 11 11 11 11 10 10 11 11 10 10 9 9 7 6 4 4 2 1 2 2 2 1 1 2 1 3 1 1 2 1
10 11 11 11 12 11 11 10 11 11 11 10 10 10 8 7 5 5 4 2 2 2 3 1 2 2 1 3 5 1 2 2
10 11 12 12 12 12 11 11 11 11 11 10 10 10 10 9 9 7 5 4 1 3 2 2 2 3 2 3 4 4 2 2
10 11 13 12 12 12 11 11 11 11 11 10 11 11 11 11 10 8 7 6 5 3 2 2 2 4 3 3 3 2 2 2
11 13 13 13 13 12 12 11 11 11 12 11 11 11 12 11 11 10 10 9 8 7 5 2 2 2 2 1 1 2 2 2
11 12 13 14 14 12 12 11 11 11 12 12 12 11 11 11 11 11 10 10 10 10 7 4 7 9 11 11 9 2 2 2
11 11 12 13 12 12 12 11 11 11 12 13 12 12 11 12 12 11 11 12 12 11 11 11 12 13 14 14 12 3 2 2
11 11 12 12 12 12 12 11 11 12 12 12 13 13 12 13 12 12 12 12 12 13 13 12 12 14 15 13 14 8 2 2
11 11 11 12 12 12 12 11 12 12 11 12 12 14 14 14 14 13 12 12 13 14 14 15 14 15 14 14 14 7 3 3